Location: Fort Worth, Tx
(32.7431°N, 97.3695°W)
Time: 09:37:33
(UTC-04:00)

Explorer 11/Cluster Stage 4 - Pass Details

Date: 25 February 2024
Orbit: 465 x 1219 km, 28.8° (Epoch: 24 April)

Event Time Altitude Azimuth Distance (km) Brightness Sun altitude
Exits shadow 04:54:44 26° 111° (ESE) 1,781 8.7 -39.9°
Drops below altitude 10° 04:57:15 10° 104° (ESE) 2,585 9.8 -39.4°
Sets 04:59:38 0° 101° (E) 3,412 10.6 -38.9°
